Location: Felsheim
(48.7267°N, 10.7386°E)
Time: 09:14:45
(UTC+00:00)

ATLAS 5 CENTAUR R/B - Pass Details

Date: 09 April 2020
Orbit: 543 x 1116 km, 63.4° (Epoch: 01 May)

Event Time Altitude Azimuth Distance (km) Brightness Sun altitude
Rises 19:59:34 0° 240° (WSW) 2,757 5.2 -18.5°
Reaches altitude 10° 20:01:45 10° 247° (WSW) 1,906 4.4 -18.8°
Maximum altitude 20:05:51 45° 321° (NW) 864 2.7 -19.4°
Drops below altitude 10° 20:10:32 10° 35° (NE) 2,175 4.4 -20.0°
Sets 20:13:11 0° 41° (NE) 3,195 5.2 -20.3°
